Weather History for KP28 - December, 2011

Change the Weather History Date:

Monday, December 12, 2011

  Actual Average Record
Temperature  
Mean Temperature 41 °F 35 °F  
Max Temperature 45 °F 47 °F 74 °F (1921)
Min Temperature 37 °F 23 °F -7 °F (1932)
Degree Days  
Heating Degree Days 24 30  
Month to date heating degree days 342  
Since 1 July heating degree days 1200  
Cooling Degree Days 0 0  
Month to date cooling degree days 0  
Year to date cooling degree days 1770  
Moisture  
Dew Point 36 °F    
Average Humidity 80    
Maximum Humidity 93    
Minimum Humidity 68    
Precipitation  
Precipitation 0.00 in 0.03 in 0.75 in (1946)
Month to date precipitation 0.36  
Year to date precipitation 26.58  
Snow  
Snow 0.00 in 0.10 in - ()
Month to date snowfall 1.1  
Since 1 July snowfall 1.3  
Snow Depth -    
Sea Level Pressure  
Sea Level Pressure 30.19 in    
Wind  
Wind Speed 8 mph (SSE)    
Max Wind Speed 14 mph    
Max Gust Speed 21 mph    
T = Trace of Precipitation, MM = Missing Value Source: NWS Daily Summary

Daily Weather History Graph

Daily Weather History Graph

Search for Another Location

Airport or City:

Trip Planner

Search our weather history database for the weather conditions in past years. The results will help you decide how hot, cold, wet, or windy it might be!

Date:

Astronomy

Dec. 12, 2011 Rise Set
Actual Time 7:38 AM CST 5:16 PM CST
Civil Twilight 7:09 AM CST 5:46 PM CST
Nautical Twilight 6:37 AM CST 6:18 PM CST
Astronomical Twilight 6:05 AM CST 6:50 PM CST
Moon 7:28 PM CST (12/12) 9:12 AM CST (12/12)
Length of Visible Light 10h 36m
Length of Day
9h 38m
Waning Gibbous, 95% of the Moon is Illuminated
Dec 12
Waning Gibbous
Dec 17
Last Quarter
Dec 24
New
Jan 1
First Quarter
Jan 9
Full

Hourly Weather History & Observations

Time (CST) Temp. Windchill Dew Point Humidity Pressure Visibility Wind Dir Wind Speed Gust Speed Precip Events Conditions
12:56 AM 37.9 °F 32.1 °F 34.0 °F 86% 30.16 in - SSE 8.1 mph - N/A   Unknown
1:56 AM 37.9 °F 32.1 °F 34.0 °F 86% 30.15 in - SSE 8.1 mph - N/A   Unknown
2:56 AM 39.0 °F 34.0 °F 34.0 °F 82% 30.15 in - SSE 6.9 mph - N/A   Unknown
3:56 AM 39.0 °F 33.4 °F 33.1 °F 79% 30.15 in - SSE 8.1 mph - N/A   Unknown
5:56 AM 39.0 °F 33.4 °F 33.1 °F 79% 30.15 in - SSE 8.1 mph - N/A   Unknown
6:56 AM 39.0 °F 34.0 °F 34.0 °F 82% 30.17 in - SSE 6.9 mph - N/A   Unknown
7:56 AM 39.9 °F 35.1 °F 33.1 °F 77% 30.18 in - SSE 6.9 mph - N/A   Unknown
8:56 AM 41.0 °F 35.8 °F 34.0 °F 76% 30.19 in - SSE 8.1 mph - N/A   Unknown
9:56 AM 41.0 °F 34.7 °F 35.1 °F 79% 30.20 in - SSE 10.4 mph - N/A   Unknown
10:56 AM 43.0 °F 36.4 °F 36.0 °F 76% 30.21 in - South 12.7 mph 19.6 mph N/A   Unknown
11:56 AM 44.1 °F 37.4 °F 36.0 °F 73% 30.20 in - South 13.8 mph - N/A   Unknown
12:56 PM 45.0 °F 38.5 °F 36.0 °F 71% 30.17 in - South 13.8 mph 20.7 mph N/A   Unknown
1:56 PM 45.0 °F 39.3 °F 35.1 °F 68% 30.16 in - SSE 11.5 mph - N/A   Unknown
2:56 PM 45.0 °F 40.1 °F 35.1 °F 68% 30.17 in - SSE 9.2 mph 17.3 mph N/A   Unknown
3:56 PM 45.0 °F 40.6 °F 37.0 °F 74% 30.17 in - SSE 8.1 mph - N/A   Unknown
4:56 PM 45.0 °F 41.8 °F 37.9 °F 76% 30.18 in - SSE 5.8 mph - N/A   Unknown
5:56 PM 44.1 °F 40.1 °F 39.9 °F 85% 30.19 in - South 6.9 mph - N/A   Unknown
6:56 PM 43.0 °F 39.5 °F 37.9 °F 82% 30.22 in - SSE 5.8 mph - N/A   Unknown
7:56 PM 42.1 °F 37.7 °F 39.0 °F 89% 30.23 in - SSE 6.9 mph - N/A   Unknown
8:56 PM 42.1 °F 37.7 °F 39.0 °F 89% 30.25 in - South 6.9 mph - N/A   Unknown
9:56 PM 41.0 °F 35.8 °F 39.0 °F 93% 30.22 in - SSE 8.1 mph - N/A   Unknown
10:56 PM 41.0 °F 36.4 °F 37.9 °F 89% 30.25 in - SSE 6.9 mph - N/A   Unknown
11:56 PM 41.0 °F 36.4 °F 37.0 °F 86% 30.24 in - SSE 6.9 mph - N/A   Unknown